TimeEST,TemperatureF,Dew PointF,Humidity,Sea Level PressureIn,VisibilityMPH,Wind Direction,Wind SpeedMPH,Gust SpeedMPH,PrecipitationIn,Events,Conditions,WindDirDegrees,DateUTC
12:15 AM,60.8,53.6,77,30.06,10.0,WSW,3.5,-,N/A,,Overcast,250,2013-02-06 05:15:00
12:35 AM,60.8,53.6,77,30.06,10.0,Calm,Calm,-,N/A,,Overcast,0,2013-02-06 05:35:00
12:55 AM,60.8,53.6,77,30.06,10.0,Calm,Calm,-,N/A,,Overcast,0,2013-02-06 05:55:00
1:15 AM,60.8,55.4,82,30.07,10.0,Calm,Calm,-,N/A,,Overcast,0,2013-02-06 06:15:00
1:35 AM,60.8,55.4,82,30.06,10.0,Calm,Calm,-,N/A,,Overcast,0,2013-02-06 06:35:00
1:55 AM,60.8,55.4,82,30.07,10.0,Calm,Calm,-,N/A,,Overcast,0,2013-02-06 06:55:00
2:15 AM,60.8,55.4,82,30.06,10.0,Calm,Calm,-,N/A,,Overcast,0,2013-02-06 07:15:00
2:35 AM,60.8,55.4,82,30.07,10.0,Calm,Calm,-,N/A,,Overcast,0,2013-02-06 07:35:00
2:55 AM,59.0,55.4,88,30.07,10.0,Calm,Calm,-,N/A,,Overcast,0,2013-02-06 07:55:00
3:15 AM,60.8,55.4,82,30.07,10.0,Calm,Calm,-,N/A,,Overcast,0,2013-02-06 08:15:00
3:35 AM,60.8,55.4,82,30.07,10.0,Calm,Calm,-,N/A,,Overcast,0,2013-02-06 08:35:00
3:55 AM,60.8,55.4,82,30.08,10.0,Calm,Calm,-,N/A,,Overcast,0,2013-02-06 08:55:00
4:15 AM,60.8,55.4,82,30.08,10.0,Calm,Calm,-,N/A,,Overcast,0,2013-02-06 09:15:00
4:35 AM,60.8,55.4,82,30.08,10.0,Calm,Calm,-,N/A,,Overcast,0,2013-02-06 09:35:00
4:55 AM,60.8,55.4,82,30.09,10.0,Calm,Calm,-,N/A,,Overcast,0,2013-02-06 09:55:00
5:15 AM,60.8,55.4,82,30.10,10.0,Calm,Calm,-,N/A,,Overcast,0,2013-02-06 10:15:00
5:35 AM,60.8,55.4,82,30.10,10.0,Calm,Calm,-,N/A,,Overcast,0,2013-02-06 10:35:00
5:55 AM,60.8,55.4,82,30.10,10.0,Calm,Calm,-,N/A,,Overcast,0,2013-02-06 10:55:00
6:15 AM,60.8,55.4,82,30.11,10.0,Calm,Calm,-,N/A,,Overcast,0,2013-02-06 11:15:00
6:35 AM,59.0,55.4,88,30.11,10.0,Calm,Calm,-,N/A,,Mostly Cloudy,0,2013-02-06 11:35:00
6:55 AM,57.2,55.4,94,30.12,10.0,Calm,Calm,-,N/A,,Overcast,0,2013-02-06 11:55:00
7:15 AM,57.2,55.4,94,30.13,10.0,Calm,Calm,-,N/A,,Overcast,0,2013-02-06 12:15:00
7:35 AM,59.0,55.4,88,30.14,10.0,Calm,Calm,-,N/A,,Overcast,0,2013-02-06 12:35:00
7:55 AM,60.8,55.4,82,30.15,10.0,Calm,Calm,-,N/A,,Overcast,0,2013-02-06 12:55:00
8:15 AM,60.8,57.2,88,30.15,10.0,Calm,Calm,-,N/A,,Overcast,0,2013-02-06 13:15:00
8:35 AM,62.6,57.2,82,30.16,10.0,Calm,Calm,-,N/A,,Overcast,0,2013-02-06 13:35:00
8:55 AM,62.6,57.2,82,30.16,10.0,Calm,Calm,-,N/A,,Overcast,0,2013-02-06 13:55:00
9:15 AM,64.4,57.2,77,30.16,10.0,Calm,Calm,-,N/A,,Overcast,0,2013-02-06 14:15:00
9:35 AM,66.2,55.4,68,30.17,10.0,Calm,Calm,-,N/A,,Overcast,0,2013-02-06 14:35:00
9:55 AM,68.0,55.4,64,30.17,10.0,Calm,Calm,-,N/A,,Overcast,0,2013-02-06 14:55:00
10:15 AM,68.0,55.4,64,30.18,10.0,Calm,Calm,-,N/A,,Overcast,0,2013-02-06 15:15:00
10:35 AM,68.0,55.4,64,30.18,10.0,Calm,Calm,-,N/A,,Overcast,0,2013-02-06 15:35:00
10:55 AM,69.8,55.4,60,30.18,10.0,Calm,Calm,-,N/A,,Overcast,0,2013-02-06 15:55:00
11:15 AM,69.8,55.4,60,30.18,10.0,Calm,Calm,-,N/A,,Overcast,0,2013-02-06 16:15:00
11:35 AM,71.6,55.4,57,30.17,10.0,ENE,3.5,-,N/A,,Overcast,60,2013-02-06 16:35:00
11:55 AM,73.4,53.6,50,30.16,10.0,Calm,Calm,-,N/A,,Mostly Cloudy,0,2013-02-06 16:55:00
12:15 PM,75.2,53.6,47,30.16,10.0,Calm,Calm,-,N/A,,Scattered Clouds,0,2013-02-06 17:15:00
12:35 PM,73.4,53.6,50,30.15,10.0,SE,3.5,-,N/A,,Scattered Clouds,130,2013-02-06 17:35:00
12:55 PM,73.4,55.4,53,30.14,10.0,Calm,Calm,-,N/A,,Scattered Clouds,0,2013-02-06 17:55:00
1:15 PM,75.2,55.4,50,30.13,10.0,East,5.8,-,N/A,,Mostly Cloudy,90,2013-02-06 18:15:00
1:35 PM,75.2,53.6,47,30.13,10.0,SW,5.8,-,N/A,,Mostly Cloudy,220,2013-02-06 18:35:00
1:55 PM,77.0,53.6,44,30.12,10.0,SE,5.8,-,N/A,,Mostly Cloudy,130,2013-02-06 18:55:00
2:15 PM,77.0,55.4,47,30.11,10.0,ESE,5.8,-,N/A,,Overcast,120,2013-02-06 19:15:00
2:35 PM,73.4,55.4,53,30.11,10.0,SE,10.4,-,N/A,,Overcast,130,2013-02-06 19:35:00
2:55 PM,71.6,55.4,57,30.12,10.0,SSE,6.9,-,N/A,,Overcast,150,2013-02-06 19:55:00
3:15 PM,73.4,55.4,53,30.12,10.0,SSE,9.2,-,N/A,,Overcast,160,2013-02-06 20:15:00
3:35 PM,73.4,55.4,53,30.12,10.0,SSE,9.2,-,N/A,,Mostly Cloudy,160,2013-02-06 20:35:00
3:55 PM,71.6,55.4,57,30.12,10.0,SSE,6.9,-,N/A,,Mostly Cloudy,150,2013-02-06 20:55:00
4:15 PM,71.6,55.4,57,30.13,10.0,SE,6.9,-,N/A,,Overcast,140,2013-02-06 21:15:00
4:35 PM,69.8,55.4,60,30.12,10.0,SSE,5.8,-,N/A,,Overcast,150,2013-02-06 21:35:00
4:55 PM,69.8,55.4,60,30.13,10.0,SSE,6.9,-,N/A,,Overcast,150,2013-02-06 21:55:00
5:15 PM,68.0,55.4,64,30.13,10.0,ESE,6.9,-,N/A,,Overcast,120,2013-02-06 22:15:00
5:35 PM,68.0,55.4,64,30.13,10.0,SSE,4.6,-,N/A,,Mostly Cloudy,150,2013-02-06 22:35:00
5:55 PM,68.0,55.4,64,30.13,10.0,Calm,Calm,-,N/A,,Mostly Cloudy,0,2013-02-06 22:55:00
6:15 PM,68.0,55.4,64,30.13,10.0,ESE,4.6,-,N/A,,Overcast,110,2013-02-06 23:15:00
6:35 PM,68.0,55.4,64,30.14,10.0,SE,3.5,-,N/A,,Overcast,140,2013-02-06 23:35:00
6:55 PM,66.2,55.4,68,30.14,10.0,SE,3.5,-,N/A,,Mostly Cloudy,140,2013-02-06 23:55:00
7:15 PM,64.4,55.4,73,30.14,10.0,SE,3.5,-,N/A,,Mostly Cloudy,130,2013-02-07 00:15:00
7:35 PM,64.4,55.4,73,30.14,10.0,SSE,3.5,-,N/A,,Overcast,150,2013-02-07 00:35:00
7:55 PM,64.4,55.4,73,30.13,10.0,ESE,3.5,-,N/A,,Overcast,110,2013-02-07 00:55:00
8:15 PM,64.4,55.4,73,30.13,10.0,SE,5.8,-,N/A,,Mostly Cloudy,140,2013-02-07 01:15:00
8:35 PM,64.4,55.4,73,30.13,10.0,Calm,Calm,-,N/A,,Mostly Cloudy,0,2013-02-07 01:35:00
8:55 PM,64.4,57.2,77,30.15,10.0,South,3.5,-,N/A,,Overcast,170,2013-02-07 01:55:00
9:15 PM,62.6,55.4,77,30.14,10.0,Calm,Calm,-,N/A,,Overcast,0,2013-02-07 02:15:00
9:35 PM,60.8,55.4,82,30.15,10.0,SSE,3.5,-,N/A,,Overcast,150,2013-02-07 02:35:00
9:55 PM,64.4,57.2,77,30.16,10.0,SSE,3.5,-,N/A,,Overcast,150,2013-02-07 02:55:00
10:15 PM,64.4,55.4,73,30.16,10.0,Calm,Calm,-,N/A,,Overcast,0,2013-02-07 03:15:00
10:35 PM,64.4,55.4,73,30.16,10.0,Calm,Calm,-,N/A,,Overcast,0,2013-02-07 03:35:00
10:55 PM,62.6,55.4,77,30.16,10.0,Calm,Calm,-,N/A,,Overcast,0,2013-02-07 03:55:00
11:15 PM,62.6,57.2,82,30.16,10.0,Calm,Calm,-,N/A,,Overcast,0,2013-02-07 04:15:00
11:35 PM,60.8,57.2,88,30.15,10.0,ENE,3.5,-,N/A,,Overcast,70,2013-02-07 04:35:00
11:55 PM,60.8,55.4,82,30.14,10.0,Calm,Calm,-,N/A,,Mostly Cloudy,0,2013-02-07 04:55:00